Hourly Data Report for October 31, 2013

All times are specified in Local Standard Time (LST). Add 1 hour to adjust for Daylight Saving Time where and when it is observed.

KUGAARUK CLIMATE
NUNAVUT

68°32'15.060" N
89°47'47.020" W
15.80 m
2303094
71407
NBB

Download Data

Hourly Data (October 2013)
Hourly Data Report for October 31, 2013
Temp Definition
°C
Dew Point Temp Definition
°C
Rel Hum Definition
%
Wind Dir Definition
10's deg

Wind Spd Definition
km/h
Visibility Definition
km
Stn Press Definition
kPa
Hmdx Definition


Wind Chill Definition


Weather Definition


TIME
00:00 -16.4 -18.3 85 8 2   100.85   -18 LegendNANA
01:00 -16.4 -18.2 86   0   100.86     LegendNANA
02:00 -16.2 -18.0 86   0   100.89     LegendNANA
03:00 -16.3 -18.1 86   0   100.93     LegendNANA
04:00 -16.3 -18.1 86   0   100.96     LegendNANA
05:00 -16.0 -17.8 86   0   100.99     LegendNANA
06:00 -15.7 -17.5 86   0   101.01     LegendNANA
07:00 -15.3 -17.0 87   0   101.04     LegendNANA
08:00 -14.7 -16.4 87   0   101.04     LegendNANA
09:00 -14.2 -15.8 88   0   101.05     LegendNANA
10:00 -13.7 -15.3 88   0   101.08     LegendNANA
11:00 -13.3 -14.9 88   0   101.10     LegendNANA
12:00 -13.0 -14.4 89   0   101.14     LegendNANA
13:00 -14.6 -16.2 88   0   101.21     LegendNANA
14:00 -14.8 -16.4 88   0   101.25     LegendNANA
15:00 -14.6 -16.2 88   0   101.30     LegendNANA
16:00 -14.3 -15.9 88   0   101.35     LegendNANA
17:00 -13.9 -15.5 88   0   101.39     LegendNANA
18:00 -13.5 -15.0 88   0   101.40     LegendNANA
19:00 -13.2 -14.7 88   0   101.43     LegendNANA
20:00 -12.8 -14.3 88   0   101.44     LegendNANA
21:00 -12.5 -13.9 89   0   101.45     LegendNANA
22:00 -12.3 -13.7 89   0   101.47     LegendNANA
23:00 -11.6 -12.9 90   0   101.49     LegendNANA

Notes on Data Quality.

Legend

  • E = Estimated
  • M = Missing
  • NA = Not Available
  • ‡ = Partner data that is not subject to review by the National Climate Archives
Date modified: